Estación de Río Bueno

Ultimos registro cada 15 minutos 37
Estación Fecha / Hora Temperatura Humedad Lluvia Velocidad Dirección Radiación Presion
37 Río Bueno 06-05-2026 09:00 9 94,8 0,4 1,7 239 8,1 1006,4
36 Río Bueno 06-05-2026 08:45 9 95 0,2 1 243 8,1 1006,2
35 Río Bueno 06-05-2026 08:30 9 94,8 0,4 1,7 229 5,6 1005,8
34 Río Bueno 06-05-2026 08:15 9 95 0 1,7 223 5,6 1005,6
33 Río Bueno 06-05-2026 08:00 9 95,4 0,2 1,7 223 3,1 1005,4
32 Río Bueno 06-05-2026 07:45 9,1 95,8 0,2 1,7 232 0,6 1005,5
31 Río Bueno 06-05-2026 07:30 9,1 96,2 0,2 1 225 0,6 1005,5
30 Río Bueno 06-05-2026 07:15 9,2 96,3 0,2 1,3 230 0,6 1005,3
29 Río Bueno 06-05-2026 07:00 9,2 96,4 0,6 1 244 0,6 1005
28 Río Bueno 06-05-2026 06:45 9,3 96,4 0,4 1 250 0,6 1005,1
27 Río Bueno 06-05-2026 06:30 9,4 96,5 0,2 1 244 0,6 1004,9
26 Río Bueno 06-05-2026 06:15 9,4 96,5 0,4 1,3 232 0,6 1004,8
25 Río Bueno 06-05-2026 06:00 9,4 96,6 0,2 1,3 239 0,6 1004,6
24 Río Bueno 06-05-2026 05:45 9,4 96,7 0,2 1 254 0,6 1004,6
23 Río Bueno 06-05-2026 05:30 9,4 96,7 0,2 1 251 0,6 1004,5
22 Río Bueno 06-05-2026 05:15 9,4 96,7 0,4 0,7 257 0,6 1004,3
21 Río Bueno 06-05-2026 05:00 9,4 96,7 0 0,7 253 0,6 1004,2
20 Río Bueno 06-05-2026 04:45 9,5 96,7 1,4 1 251 0,6 1004,1
19 Río Bueno 06-05-2026 04:30 9,6 96,6 1,6 0,7 257 0,6 1004,2
18 Río Bueno 06-05-2026 04:15 9,6 96,6 1,4 1 257 0,6 1004,5
17 Río Bueno 06-05-2026 04:00 9,7 96,5 1 0,7 261 0,6 1004,5
16 Río Bueno 06-05-2026 03:45 9,9 96,4 1,4 0,7 299 0,6 1004,9
15 Río Bueno 06-05-2026 03:30 10 96,3 1 0,3 277 0,6 1004,7
14 Río Bueno 06-05-2026 03:15 10,1 96,3 1,6 0 248 0,6 1004,5
13 Río Bueno 06-05-2026 03:00 10,1 96,3 1,6 0,3 215 0,6 1004,7
12 Río Bueno 06-05-2026 02:45 10,2 96,2 1,8 0,3 227 0,6 1004,7
11 Río Bueno 06-05-2026 02:30 10,3 96,2 3 0,3 237 0,6 1004,7
10 Río Bueno 06-05-2026 02:15 10,3 96,1 2,4 0,7 204 0,6 1004,5
9 Río Bueno 06-05-2026 02:00 10,4 96 2,6 1,3 219 0,6 1004,5
8 Río Bueno 06-05-2026 01:45 10,6 95,7 2 2 219 0,6 1004,4
7 Río Bueno 06-05-2026 01:30 11,2 95,1 1,6 1,3 225 0,6 1004,3
6 Río Bueno 06-05-2026 01:15 12,8 93,3 1 0,7 307 0,6 1004,1
5 Río Bueno 06-05-2026 01:00 14 93,3 0 0,7 8 0,6 1004,1
4 Río Bueno 06-05-2026 00:45 14 93,2 0 1 13 0,6 1004,1
3 Río Bueno 06-05-2026 00:30 14,1 92,9 0 1 17 0,6 1004,1
2 Río Bueno 06-05-2026 00:15 14,1 92,9 0 1 18 0,6 1004,2
1 Río Bueno 06-05-2026 00:00 14,2 92,5 0 1,3 22 0,6 1004,1